Weather Roundup
Issued by NWS Chicago, IL

Home | Current Version | Previous Version | Graphics & Text | Print | Product List | Glossary On
Versions: 1 2 3 4 5 6 7 8 9 10 11 12 13 14 15 16 17 18 19 20 21 22 23 24 25 26 27 28 29 30 31 32 33 34 35 36 37 38 39 40 41 42 43 44 45 46 47 48 49 50
000
NZUS59 KLOT 241208
HRRLOT

CHICAGO AREA WEATHER ROUNDUP
NATIONAL WEATHER SERVICE CHICAGO/ROMEOVILLE IL
700 AM CDT TUE MAY 24 2016

NOTE: "FAIR" INDICATES FEW OR NO CLOUDS BELOW 12,000 FEET WITH NO
SIGNIFICANT WEATHER AND/OR OBSTRUCTIONS TO VISIBILITY.

* THESE STATIONS ARE NOT UNDER NWS QUALITY CONTROL. THEY ALSO MAY NOT
  REPORT WEATHER SUCH AS PRECIPITATION OR FOG.

ILZ005-006-012>014-019>023-241300-
NORTHEAST ILLINOIS

CITY           SKY/WX    TMP DP  RH WIND       PRES   REMARKS
OHARE          CLOUDY    61  49  64 S6        29.99R
6HR MIN TEMP:  60; 6HR MAX TEMP:  67;

MIDWAY         PTSUNNY   65  45  48 S7        30.00R
6HR MIN TEMP:  64; 6HR MAX TEMP:  70;

AURORA         MOSUNNY   59  49  69 CALM      29.99R
6HR MIN TEMP:  55; 6HR MAX TEMP:  65;

LANSING*       CLOUDY    60  46  60 S3        30.01R
JOLIET*        SUNNY     60  52  75 CALM      30.00R
WAUKEGAN       PTSUNNY   62  49  62 SW8       29.98R
6HR MIN TEMP:  52; 6HR MAX TEMP:  62;

DUPAGE AIRPORT MOSUNNY   56  47  71 S5        29.98R
6HR MIN TEMP:  56; 6HR MAX TEMP:  62;

WHEELING       CLOUDY    61  49  64 SE3       29.99R
6HR MIN TEMP:  57; 6HR MAX TEMP:  63;

KANKAKEE*      PTSUNNY  N/A N/A N/A S6        30.02S
MORRIS*        SUNNY     61  50  66 CALM      29.99R
LEWIS AIRPORT* SUNNY     59  47  66 S8        30.00S
$$

WIZ051-052-058>065-066-070>072-241300-
SOUTHEAST WISCONSIN

CITY           SKY/WX    TMP DP  RH WIND       PRES   REMARKS
MILWAUKEE      CLOUDY    63  48  58 SW8       29.96R
6HR MIN TEMP:  59; 6HR MAX TEMP:  63;

KENOSHA*       CLOUDY    63  50  62 SW3       29.97R
RACINE*        CLOUDY    63  48  58 SW7       29.98R
BURLINGTON     SUNNY     54  48  81 CALM      29.97S
WAUKESHA       SUNNY     57  45  62 S3        29.97R
WEST BEND      CLOUDY    57  46  67 CALM      29.96R
$$

INZ001>003-010>013-019-020-241300-
NORTHWEST INDIANA

CITY           SKY/WX    TMP DP  RH WIND       PRES   REMARKS
GARY*          PTSUNNY   66  52  59 S5        30.01R
MICHIGAN CITY* NOT AVBL
RENSSELAER*    NOT AVBL
VALPARAISO     CLOUDY    63  46  54 S5        30.03R
$$

LMZ740>746-241300-
SOUTHERN LAKE MICHIGAN

STATION/POSITION TIME  SKY/WX   TEMP WIND        PRES    VSBY
                                AIR  DIR/SP/G
                 (UTC)          (F)  (DEG/KT/KT) (MB)    (MI)
HARRISON CRIB    1100            67  190/ 15/ 15   N/A
BURNHAM HARBOR   1200            66  200/  5/  7   N/A
CALUMET HARBOR   1100            64  190/  4/  6 1014.9R
BURNS HARBOR     1101            64  190/ 11/ 15 1016.3R
MICHIGAN CITY    1100            66  160/ 13/ 14   N/A
$$

ABBREVIATIONS USED IN REMARKS
   TC - TEMPERATURE IN CELSIUS
  WCI - WIND CHILL INDEX
   HX - HEAT INDEX
  VSB - VISIBILITY
$$



USA.gov is the U.S. government's official web portal to all federal, state and local government web resources and services.